Location: *
(58.4167°N, 22.5000°E)
Time: 12:46:02
(UTC+00:00)

Cosmos 1725 Rocket - Pass Details

Date: 22 September 2019
Orbit: 961 x 991 km, 82.9° (Epoch: 16 October)

Event Time Altitude Azimuth Distance (km) Brightness Sun altitude
Rises 21:03:39 0° 347° (NNW) 3,663 8.2 -29.4°
Reaches altitude 10° 21:06:10 10° 348° (NNW) 2,713 7.2 -29.5°
Enters shadow 21:12:15 80° 57° (ENE) 988 3.9 -29.8°
